| time (UTC) | temp C | wind direction | speed KPH | gust KPH | rain 1hr cm | rain 24hr cm | rain mn cm | humidity % | barometer mb |
| 20260504060218 | 9 | 82 | 0.0 | 1.6 | 0.00 | 0.00 | 0.00 | 99 | 1022.1 |
| 20260504050646 | 10 | 81 | 0.0 | 0.0 | 0.00 | 0.00 | 0.00 | 99 | 1022.1 |
| 20260504050143 | 10 | 81 | 0.0 | 0.0 | 0.00 | 0.00 | 0.00 | 99 | 1022.1 |
| 20260504045641 | 10 | 26 | 0.0 | 1.6 | 0.00 | 0.03 | 0.03 | 99 | 1022.2 |
| 20260504045141 | 10 | 21 | 0.0 | 3.2 | 0.00 | 0.03 | 0.03 | 99 | 1022.1 |
| 20260504044639 | 10 | 75 | 0.0 | 1.6 | 0.00 | 0.03 | 0.03 | 99 | 1022.1 |
| 20260504044135 | 10 | 23 | 1.6 | 4.8 | 0.00 | 0.03 | 0.03 | 99 | 1022.3 |
| 20260504043632 | 10 | 90 | 0.0 | 0.0 | 0.00 | 0.03 | 0.03 | 99 | 1022.0 |
| 20260504043130 | 10 | 90 | 0.0 | 1.6 | 0.00 | 0.03 | 0.03 | 99 | 1022.3 |
| 20260504042627 | 10 | 74 | 0.0 | 0.0 | 0.00 | 0.03 | 0.03 | 99 | 1022.4 |
| 20260504042123 | 10 | 48 | 0.0 | 0.0 | 0.00 | 0.03 | 0.03 | 98 | 1022.1 |
| 20260504041619 | 10 | 8 | 0.0 | 1.6 | 0.00 | 0.03 | 0.03 | 98 | 1022.0 |
| 20260504041115 | 10 | 90 | 0.0 | 0.0 | 0.00 | 0.03 | 0.03 | 98 | 1022.0 |
| 20260504040613 | 10 | 15 | 0.0 | 0.0 | 0.00 | 0.03 | 0.03 | 98 | 1021.8 |
| 20260504040110 | 10 | 75 | 0.0 | 0.0 | 0.00 | 0.03 | 0.03 | 97 | 1022.0 |
| 20260504035607 | 10 | 75 | 0.0 | 0.0 | 0.00 | 0.03 | 0.03 | 97 | 1021.9 |
| 20260504035103 | 10 | 75 | 0.0 | 0.0 | 0.00 | 0.03 | 0.03 | 97 | 1022.3 |
| 20260504034601 | 10 | 75 | 0.0 | 0.0 | 0.00 | 0.03 | 0.03 | 96 | 1022.1 |
| 20260504034057 | 11 | 75 | 0.0 | 0.0 | 0.00 | 0.03 | 0.03 | 96 | 1022.1 |
| 20260504033555 | 11 | 75 | 0.0 | 0.0 | 0.00 | 0.03 | 0.03 | 96 | 1021.6 |
| 20260504033052 | 11 | 8 | 0.0 | 0.0 | 0.00 | 0.03 | 0.03 | 95 | 1022.0 |
| 20260504032549 | 11 | 8 | 0.0 | 0.0 | 0.00 | 0.03 | 0.03 | 95 | 1022.0 |
| 20260504032046 | 11 | 8 | 0.0 | 0.0 | 0.00 | 0.03 | 0.03 | 95 | 1022.0 |
| 20260504031543 | 11 | 8 | 0.0 | 0.0 | 0.00 | 0.03 | 0.03 | 94 | 1022.1 |
| 20260504031039 | 11 | 8 | 0.0 | 0.0 | 0.00 | 0.03 | 0.03 | 94 | 1022.5 |
| 20260504030536 | 11 | 8 | 0.0 | 0.0 | 0.00 | 0.03 | 0.03 | 94 | 1022.5 |
| 20260504030033 | 11 | 8 | 0.0 | 0.0 | 0.00 | 0.03 | 0.03 | 94 | 1022.1 |
| 20260504025530 | 11 | 7 | 0.0 | 1.6 | 0.00 | 0.03 | 0.03 | 93 | 1022.2 |
| 20260504025027 | 11 | 0 | 0.0 | 0.0 | 0.00 | 0.03 | 0.03 | 92 | 1022.1 |
| 20260504024524 | 12 | 0 | 0.0 | 0.0 | 0.00 | 0.03 | 0.03 | 92 | 1022.2 |
| 20260504024020 | 12 | 0 | 0.0 | 0.0 | 0.00 | 0.03 | 0.03 | 91 | 1021.9 |
| 20260504023517 | 12 | 0 | 0.0 | 0.0 | 0.00 | 0.03 | 0.03 | 91 | 1022.0 |
| 20260504023013 | 12 | 0 | 0.0 | 0.0 | 0.00 | 0.03 | 0.03 | 91 | 1022.0 |
| 20260504022509 | 12 | 0 | 0.0 | 0.0 | 0.00 | 0.03 | 0.03 | 90 | 1021.9 |
| 20260504022006 | 12 | 0 | 0.0 | 0.0 | 0.00 | 0.03 | 0.03 | 90 | 1021.8 |
| 20260504021504 | 13 | 0 | 0.0 | 0.0 | 0.00 | 0.03 | 0.03 | 89 | 1021.7 |
| 20260504021000 | 13 | 0 | 0.0 | 0.0 | 0.00 | 0.03 | 0.03 | 88 | 1021.7 |
| 20260504020456 | 13 | 352 | 0.0 | 1.6 | 0.00 | 0.03 | 0.03 | 88 | 1021.5 |
| 20260504015953 | 13 | 0 | 0.0 | 0.0 | 0.00 | 0.03 | 0.03 | 89 | 1021.6 |
| 20260504015450 | 13 | 0 | 0.0 | 1.6 | 0.00 | 0.03 | 0.03 | 88 | 1021.4 |
| 20260504014945 | 13 | 352 | 0.0 | 0.0 | 0.00 | 0.03 | 0.03 | 88 | 1021.4 |
| 20260504014442 | 13 | 352 | 0.0 | 0.0 | 0.00 | 0.03 | 0.03 | 87 | 1021.6 |
| 20260504013938 | 14 | 352 | 0.0 | 0.0 | 0.00 | 0.03 | 0.03 | 85 | 1021.5 |
| 20260504013437 | 14 | 352 | 0.0 | 0.0 | 0.00 | 0.03 | 0.03 | 84 | 1021.3 |
| 20260504012932 | 14 | 352 | 0.0 | 0.0 | 0.00 | 0.03 | 0.03 | 85 | 1021.1 |
| 20260504012431 | 15 | 352 | 0.0 | 0.0 | 0.00 | 0.03 | 0.03 | 83 | 1021.3 |
| 20260504011928 | 15 | 352 | 0.0 | 0.0 | 0.00 | 0.03 | 0.03 | 81 | 1021.3 |
| 20260504011425 | 15 | 352 | 0.0 | 0.0 | 0.00 | 0.03 | 0.03 | 84 | 1021.0 |
| 20260504010920 | 15 | 352 | 0.0 | 0.0 | 0.00 | 0.03 | 0.03 | 83 | 1021.2 |
| 20260504010416 | 15 | 352 | 0.0 | 0.0 | 0.00 | 0.03 | 0.03 | 83 | 1020.9 |
| 20260504005913 | 16 | 352 | 0.0 | 0.0 | 0.00 | 0.03 | 0.03 | 82 | 1020.8 |
| 20260504005409 | 16 | 352 | 0.0 | 0.0 | 0.00 | 0.03 | 0.03 | 81 | 1020.8 |
| 20260504004908 | 16 | 352 | 0.0 | 0.0 | 0.00 | 0.03 | 0.03 | 79 | 1020.9 |
| 20260504004405 | 16 | 352 | 0.0 | 0.0 | 0.00 | 0.03 | 0.03 | 76 | 1020.7 |
| 20260504003901 | 17 | 352 | 0.0 | 0.0 | 0.00 | 0.03 | 0.03 | 77 | 1020.8 |
| 20260504003358 | 17 | 352 | 0.0 | 0.0 | 0.00 | 0.03 | 0.03 | 77 | 1020.7 |
| 20260504002855 | 18 | 352 | 0.0 | 0.0 | 0.00 | 0.03 | 0.03 | 75 | 1020.4 |
| 20260504002351 | 18 | 352 | 0.0 | 0.0 | 0.00 | 0.03 | 0.03 | 74 | 1020.6 |
| 20260504001849 | 18 | 352 | 0.0 | 0.0 | 0.00 | 0.03 | 0.03 | 72 | 1020.4 |
| 20260504001346 | 19 | 352 | 0.0 | 0.0 | 0.00 | 0.03 | 0.03 | 71 | 1020.5 |
| 20260504000838 | 20 | 352 | 0.0 | 0.0 | 0.00 | 0.03 | 0.03 | 67 | 1020.5 |
| 20260504000335 | 20 | 263 | 0.0 | 0.0 | 0.00 | 0.03 | 0.03 | 66 | 1020.4 |
| 20260503235832 | 21 | 263 | 0.0 | 0.0 | 0.00 | 0.03 | 0.03 | 63 | 1020.4 |
| 20260503235329 | 21 | 263 | 0.0 | 0.0 | 0.00 | 0.03 | 0.03 | 60 | 1020.6 |
| 20260503234827 | 21 | 263 | 0.0 | 3.2 | 0.00 | 0.03 | 0.03 | 60 | 1020.4 |
| 20260503234324 | 22 | 336 | 0.0 | 0.0 | 0.00 | 0.03 | 0.03 | 57 | 1020.3 |
| 20260503233822 | 22 | 336 | 0.0 | 0.0 | 0.00 | 0.03 | 0.03 | 54 | 1020.4 |
| 20260503233318 | 23 | 334 | 1.6 | 3.2 | 0.00 | 0.03 | 0.03 | 48 | 1020.5 |
| 20260503232815 | 23 | 345 | 0.0 | 0.0 | 0.00 | 0.03 | 0.03 | 52 | 1020.4 |
| 20260503232312 | 23 | 270 | 0.0 | 3.2 | 0.00 | 0.03 | 0.03 | 49 | 1020.4 |
| 20260503231810 | 23 | 337 | 0.0 | 4.8 | 0.00 | 0.03 | 0.03 | 46 | 1020.9 |
| 20260503231307 | 24 | 337 | 0.0 | 8.0 | 0.00 | 0.03 | 0.03 | 44 | 1020.4 |
| 20260503230803 | 26 | 324 | 8.0 | 8.0 | 0.00 | 0.03 | 0.03 | 40 | 1020.5 |
| 20260503230300 | 26 | 312 | 6.4 | 8.0 | 0.00 | 0.03 | 0.03 | 39 | 1020.6 |
| 20260503225757 | 27 | 279 | 0.0 | 6.4 | 0.00 | 0.03 | 0.03 | 42 | 1020.6 |
| 20260503225253 | 26 | 315 | 0.0 | 0.0 | 0.00 | 0.03 | 0.03 | 45 | 1020.3 |
| 20260503224749 | 26 | 255 | 3.2 | 9.7 | 0.00 | 0.03 | 0.03 | 39 | 1020.2 |
| 20260503224247 | 25 | 279 | 3.2 | 8.0 | 0.00 | 0.03 | 0.03 | 40 | 1020.5 |
| 20260503223745 | 26 | 328 | 3.2 | 6.4 | 0.00 | 0.03 | 0.03 | 37 | 1020.2 |
| 20260503223242 | 27 | 330 | 3.2 | 4.8 | 0.00 | 0.03 | 0.03 | 36 | 1020.3 |
| 20260503222738 | 26 | 325 | 1.6 | 3.2 | 0.00 | 0.03 | 0.03 | 39 | 1020.3 |
| 20260503222236 | 26 | 270 | 1.6 | 8.0 | 0.00 | 0.03 | 0.03 | 39 | 1020.3 |
| 20260503221734 | 26 | 331 | 4.8 | 9.7 | 0.00 | 0.03 | 0.03 | 39 | 1020.3 |
| 20260503221232 | 26 | 290 | 4.8 | 12.9 | 0.00 | 0.03 | 0.03 | 37 | 1020.1 |
| 20260503220728 | 26 | 282 | 3.2 | 11.3 | 0.00 | 0.03 | 0.03 | 43 | 1020.2 |
| 20260503220225 | 26 | 245 | 0.0 | 8.0 | 0.00 | 0.03 | 0.03 | 46 | 1020.5 |
| 20260503215722 | 26 | 262 | 0.0 | 3.2 | 0.00 | 0.03 | 0.03 | 37 | 1020.5 |
| 20260503215219 | 27 | 264 | 0.0 | 6.4 | 0.00 | 0.03 | 0.03 | 42 | 1020.3 |
| 20260503214717 | 26 | 289 | 4.8 | 8.0 | 0.00 | 0.03 | 0.03 | 36 | 1020.6 |
| 20260503214213 | 26 | 160 | 0.0 | 1.6 | 0.00 | 0.03 | 0.03 | 35 | 1020.7 |
| 20260503213712 | 26 | 338 | 3.2 | 8.0 | 0.00 | 0.03 | 0.03 | 38 | 1020.5 |
| 20260503213208 | 27 | 297 | 0.0 | 11.3 | 0.00 | 0.03 | 0.03 | 43 | 1020.7 |
| 20260503212705 | 27 | 270 | 3.2 | 6.4 | 0.00 | 0.03 | 0.03 | 36 | 1020.7 |
| 20260503212203 | 27 | 348 | 6.4 | 8.0 | 0.00 | 0.03 | 0.03 | 39 | 1020.7 |
| 20260503211701 | 27 | 294 | 4.8 | 4.8 | 0.00 | 0.03 | 0.03 | 40 | 1020.7 |
| 20260503211156 | 26 | 345 | 0.0 | 16.1 | 0.00 | 0.03 | 0.03 | 41 | 1020.8 |
| 20260503210652 | 25 | 340 | 11.3 | 17.7 | 0.00 | 0.03 | 0.03 | 37 | 1020.8 |
| 20260503210149 | 26 | 319 | 3.2 | 11.3 | 0.00 | 0.03 | 0.03 | 36 | 1020.9 |
| 20260503205644 | 27 | 311 | 0.0 | 4.8 | 0.00 | 0.03 | 0.03 | 39 | 1021.0 |
| 20260503205141 | 27 | 349 | 0.0 | 14.5 | 0.00 | 0.03 | 0.03 | 46 | 1020.7 |
| 20260503204638 | 26 | 317 | 9.7 | 14.5 | 0.00 | 0.03 | 0.03 | 37 | 1021.0 |
| 20260503204136 | 27 | 289 | 0.0 | 4.8 | 0.00 | 0.03 | 0.03 | 40 | 1021.1 |
| 20260503203632 | 27 | 103 | 0.0 | 6.4 | 0.00 | 0.03 | 0.03 | 43 | 1021.3 |
| 20260503203130 | 26 | 315 | 6.4 | 8.0 | 0.00 | 0.03 | 0.03 | 36 | 1021.3 |
| 20260503202627 | 27 | 180 | 0.0 | 6.4 | 0.00 | 0.03 | 0.03 | 40 | 1021.3 |
| 20260503202125 | 27 | 99 | 0.0 | 4.8 | 0.00 | 0.03 | 0.03 | 37 | 1021.1 |
| 20260503201623 | 27 | 289 | 0.0 | 3.2 | 0.00 | 0.03 | 0.03 | 40 | 1021.2 |
| 20260503201120 | 27 | 234 | 0.0 | 6.4 | 0.00 | 0.03 | 0.03 | 41 | 1021.5 |
| 20260503200616 | 25 | 289 | 1.6 | 14.5 | 0.00 | 0.03 | 0.03 | 39 | 1021.6 |
| 20260503200113 | 26 | 251 | 4.8 | 11.3 | 0.00 | 0.03 | 0.03 | 39 | 1021.4 |
| 20260503195610 | 27 | 289 | 0.0 | 9.7 | 0.00 | 0.03 | 0.03 | 43 | 1021.6 |
| 20260503195106 | 26 | 213 | 6.4 | 8.0 | 0.00 | 0.03 | 0.03 | 37 | 1021.8 |
| 20260503194603 | 26 | 307 | 8.0 | 14.5 | 0.00 | 0.03 | 0.03 | 39 | 1021.7 |
| 20260503194058 | 26 | 297 | 4.8 | 11.3 | 0.00 | 0.03 | 0.03 | 36 | 1021.8 |
| 20260503193555 | 26 | 288 | 8.0 | 12.9 | 0.00 | 0.03 | 0.03 | 38 | 1022.1 |
| 20260503193051 | 26 | 273 | 6.4 | 8.0 | 0.00 | 0.03 | 0.03 | 39 | 1022.2 |
| 20260503192547 | 26 | 217 | 0.0 | 9.7 | 0.00 | 0.03 | 0.03 | 41 | 1022.3 |
| 20260503192043 | 26 | 240 | 3.2 | 4.8 | 0.00 | 0.03 | 0.03 | 43 | 1022.5 |
| 20260503191539 | 26 | 290 | 8.0 | 8.0 | 0.00 | 0.03 | 0.03 | 39 | 1022.5 |
| 20260503191036 | 26 | 346 | 4.8 | 11.3 | 0.00 | 0.03 | 0.03 | 40 | 1022.9 |
| 20260503190533 | 25 | 101 | 0.0 | 8.0 | 0.00 | 0.03 | 0.03 | 42 | 1023.0 |
| 20260503190030 | 25 | 352 | 3.2 | 11.3 | 0.00 | 0.03 | 0.03 | 41 | 1022.8 |
| 20260503185527 | 25 | 233 | 3.2 | 4.8 | 0.00 | 0.03 | 0.03 | 36 | 1022.8 |
| 20260503185021 | 25 | 203 | 3.2 | 9.7 | 0.00 | 0.03 | 0.03 | 36 | 1023.1 |
| 20260503184518 | 26 | 289 | 4.8 | 6.4 | 0.00 | 0.03 | 0.03 | 37 | 1023.1 |
| 20260503184014 | 26 | 289 | 4.8 | 4.8 | 0.00 | 0.03 | 0.03 | 36 | 1022.9 |
| 20260503183511 | 25 | 250 | 3.2 | 8.0 | 0.00 | 0.03 | 0.03 | 41 | 1023.0 |
| 20260503183008 | 26 | 309 | 9.7 | 9.7 | 0.00 | 0.03 | 0.03 | 42 | 1023.1 |
| 20260503182507 | 25 | 297 | 4.8 | 12.9 | 0.00 | 0.03 | 0.03 | 40 | 1023.2 |
| 20260503182005 | 25 | 326 | 3.2 | 6.4 | 0.00 | 0.03 | 0.03 | 40 | 1023.5 |
| 20260503181501 | 26 | 270 | 4.8 | 11.3 | 0.00 | 0.03 | 0.03 | 43 | 1023.5 |
| 20260503180956 | 25 | 315 | 3.2 | 9.7 | 0.00 | 0.03 | 0.03 | 41 | 1023.4 |
| 20260503180455 | 26 | 313 | 4.8 | 4.8 | 0.00 | 0.03 | 0.03 | 40 | 1023.3 |
| 20260503175951 | 25 | 251 | 0.0 | 8.0 | 0.00 | 0.03 | 0.03 | 39 | 1023.3 |
| 20260503175450 | 26 | 230 | 4.8 | 4.8 | 0.00 | 0.03 | 0.03 | 42 | 1023.3 |
| 20260503174945 | 26 | 180 | 0.0 | 6.4 | 0.00 | 0.03 | 0.03 | 47 | 1023.4 |
| 20260503174443 | 26 | 278 | 4.8 | 6.4 | 0.00 | 0.03 | 0.03 | 47 | 1023.4 |
| 20260503173938 | 25 | 96 | 3.2 | 6.4 | 0.00 | 0.03 | 0.03 | 43 | 1023.8 |
| 20260503173434 | 25 | 151 | 0.0 | 3.2 | 0.00 | 0.03 | 0.03 | 40 | 1023.6 |
| 20260503172931 | 25 | 90 | 0.0 | 14.5 | 0.00 | 0.03 | 0.03 | 45 | 1023.6 |
| 20260503172429 | 25 | 254 | 1.6 | 8.0 | 0.00 | 0.03 | 0.03 | 39 | 1023.6 |
| 20260503171925 | 25 | 331 | 0.0 | 6.4 | 0.00 | 0.03 | 0.03 | 45 | 1024.1 |
| 20260503171422 | 25 | 303 | 3.2 | 6.4 | 0.00 | 0.03 | 0.03 | 42 | 1023.8 |
| 20260503170920 | 25 | 331 | 0.0 | 9.7 | 0.00 | 0.03 | 0.03 | 45 | 1024.0 |
| 20260503170415 | 25 | 307 | 4.8 | 4.8 | 0.00 | 0.03 | 0.03 | 47 | 1024.0 |
| 20260503150808 | 22 | 270 | 0.0 | 9.7 | 0.00 | 0.03 | 0.03 | 61 | 1025.1 |
| 20260503150304 | 21 | 303 | 3.2 | 9.7 | 0.00 | 0.03 | 0.03 | 53 | 1025.3 |
| 20260503140228 | 16 | 320 | 0.0 | 3.2 | 0.00 | 0.03 | 0.03 | 88 | 1024.7 |
| 20260503131158 | 11 | 0 | 0.0 | 1.6 | 0.00 | 0.00 | 0.00 | 99 | 1024.1 |
| 20260503130655 | 10 | 0 | 1.6 | 1.6 | 0.00 | 0.00 | 0.00 | 99 | 1024.3 |
| 20260503130153 | 10 | 15 | 0.0 | 1.6 | 0.00 | 0.00 | 0.00 | 99 | 1024.0 |
| 20260503120118 | 5 | 74 | 0.0 | 0.0 | 0.00 | 0.00 | 0.00 | 99 | 1024.1 |
| 20260503110545 | 5 | 82 | 0.0 | 3.2 | 0.00 | 0.00 | 0.00 | 99 | 1023.4 |
| 20260503090426 | 5 | 105 | 0.0 | 0.0 | 0.00 | 0.00 | 0.00 | 99 | 1022.5 |
| 20260503081353 | 6 | 74 | 0.0 | 1.6 | 0.00 | 0.00 | 0.00 | 99 | 1022.1 |
| 20260503080850 | 6 | 0 | 0.0 | 1.6 | 0.00 | 0.00 | 0.00 | 99 | 1022.2 |
| 20260503080347 | 6 | 75 | 0.0 | 0.0 | 0.00 | 0.00 | 0.00 | 99 | 1022.3 |
| 20260503072823 | 6 | 75 | 0.0 | 1.6 | 0.00 | 0.00 | 0.00 | 99 | 1022.1 |
| 20260503072320 | 6 | 75 | 0.0 | 0.0 | 0.00 | 0.00 | 0.00 | 99 | 1022.3 |
| 20260503071816 | 6 | 71 | 0.0 | 0.0 | 0.00 | 0.00 | 0.00 | 99 | 1022.2 |
| 20260503071314 | 6 | 90 | 0.0 | 1.6 | 0.05 | 0.00 | 0.00 | 99 | 1022.1 |
| 20260503070809 | 6 | 29 | 0.0 | 1.6 | 0.05 | 0.00 | 0.00 | 99 | 1022.2 |
| 20260503070302 | 6 | 82 | 0.0 | 0.0 | 0.00 | 0.00 | 0.00 | 99 | 1022.0 |